Погода в Альпе-ди-Сьюзи

Италия     46°32′24″N   11°37′04″E
темп.,
°C
ветер,
м/с
пор.,
м/с
влажн.,
%
обл.,
%
осадки,
мм/ч
давл.,
гПа
погр.,
м
24 января, вс
вс2401:00−7в228974 0.1 99822
04:00−8всв228734 0.0 99825
07:00−9всв228736 0.0 100036
10:00−4ссв23819 0.0 1001162
13:00−1ссз137230 0.0 1000450
16:00−3с2276100 0.0 100139
19:00−9всв337267 0.0 100440
22:00−11в22630 0.0 100527
25 января, пн
пн2501:00−12всв336417 0.0 100435
04:00−12всв2266100 0.0 100337
07:00−12всв226499 0.0 100336
10:00−8ссв2267100 0.0 1003125
13:00−4ссв1261100 0.0 1002278
16:00−4ссв117784 0.1 100421
19:00−9всв237970 0.1 100735
22:00−10всв227937 0.0 101130
26 января, вт
вт2601:00−10всв227954 0.0 101337
04:00−11всв22790 0.0 101528
07:00−11всв22827 0.0 101836
10:00−7ссв127627 0.0 1020197
13:00−3ссз126514 0.0 1019674
16:00−4с11720 0.0 101929
19:00−10всв23771 0.0 102236
22:00−11всв227628 0.0 102433
27 января, ср
ср2701:00−12всв227015 0.0 102433
04:00−13всв22670 0.0 102234
07:00−12всв22660 0.0 102136
10:00−8св126875 0.0 1020118
13:00−3ссз116784 0.0 1018291
16:00−4ссз1182100 0.0 101764
19:00−6всв1284100 0.1 101723
22:00−5всв1194100 0.5 101625
28 января, чт
чт2801:00−5всв1292100 0.9 101621
04:00−5всв228872 0.0 101533
07:00−5всв228666 0.0 101528
10:00−1с118361 0.0 1014117
13:00+1зсз119049 0.0 1012192
16:00−1зсз119753 0.0 1012111
19:00−4в119046 0.0 101421
22:00−3в128619 0.0 101421